Regional Weather Roundup
Issued by NWS

Home | Current Version | Previous Version | Graphics & Text | Print | Product List | Glossary On
Versions: 1 2 3 4 5 6 7 8 9 10 11 12 13 14 15 16 17 18 19 20 21 22 23 24 25 26 27 28 29 30 31 32 33 34 35 36 37 38 39 40 41 42 43 44 45 46 47 48 49 50
000
ASUS45 KSLC 281110
RWRUT

UTAH REGIONAL WEATHER ROUNDUP
NATIONAL WEATHER SERVICE SALT LAKE CITY UT
500 AM MDT TUE JUL 28 2015

UTZ001>011-023>025-281200-

NORTHERN UTAH

CITY           SKY/WX    TMP DP  RH WIND       PRES   REMARKS
BRIGHAM CITY   CLEAR     51  37  59 CALM      30.22R
HILL AFB       CLEAR     54  34  47 E8        30.22
LOGAN            N/A    N/A N/A N/A MISG      30.22R
OGDEN          CLEAR     52  37  56 NW7       30.21R
PROVO AIRPORT  CLEAR     59  34  38 N5        30.21S
SALT LAKE CITY CLEAR     55  38  52 S3        30.20R
VERNAL         CLEAR     57  31  37 NE8       30.18R
WENDOVER       CLEAR     57  28  33 W3        30.24S
HEBER CITY     CLEAR     43  36  75 E5        30.25R
WEST JORDAN    CLEAR     57  30  35 W9        30.22R

$$

UTZ012>022-026-027-281200-

SOUTHERN/CENTRAL UTAH

CITY           SKY/WX    TMP DP  RH WIND       PRES   REMARKS
BLANDING       CLEAR     58  25  29 NE6       30.20R
BRYCE CANYON   CLEAR     40  27  59 NW5       30.30R
CEDAR CITY     CLEAR     56  27  32 CALM      30.19R
DELTA          CLEAR     57  32  38 N10       30.20R
HANKSVILLE     CLEAR     57  32  38 CALM      30.11R
MILFORD        CLEAR     59  36  42 N15       30.18R
MOAB/CYNLANDS  CLEAR     64  34  32 SW5       30.06R
PRICE          CLEAR     63  31  30 NW16      30.18R
ST GEORGE      SUNNY     75  34  22 SW3       29.99R
KANAB          CLEAR     61  30  31 N10       30.16R

$$

REGIONAL REPORTS     COLORADO/ARIZONA

CITY           SKY/WX    TMP DP  RH WIND       PRES   REMARKS
CRAIG, CO        N/A     43  33  68 CALM      30.26R
GRAND JUNCTION CLEAR     54  30  40 CALM      30.09R
RIFLE          CLEAR     52  36  54 E7        30.17R
MONTROSE       CLEAR     54  36  50 SE10      30.17R
CORTEZ         CLEAR     50  36  58 E8        30.15R
PAGE, AZ       CLEAR     74  27  17 W6        30.03R
GRAND CANYON   CLEAR     41  21  44 CALM      30.23R
KINGMAN        CLEAR     69  33  26 SE12      29.98R
FLAGSTAFF      CLEAR     50  40  68 W3        30.26R

$$

REGIONAL REPORTS    NEVADA/IDAHO/WYOMING

CITY           SKY/WX    TMP DP  RH WIND       PRES   REMARKS
LAS VEGAS, NV  CLEAR     81  30  15 CALM      29.83R
ELY            CLEAR     52  24  33 N15       30.27R
ELKO           CLEAR     47  26  44 E5        30.26R
POCATELLO, ID  CLEAR     41  40  96 CALM      30.25R
BURLEY         CLEAR     43  35  73 W3        30.22S
EVANSTON, WY   CLEAR     43  31  62 SW3       30.30S
ROCK SPRINGS   CLEAR     48  22  35 SW12      30.27R
KEMMERER       CLEAR     39  25  56 W5        30.30S

$$



USA.gov is the U.S. government's official web portal to all federal, state and local government web resources and services.